Location: Newark
(34.1333°N, 7.9667°W)
Time: 05:46:32
(UTC+00:00)

AO-92 - Visible Passes

Search period start: 08 June 2023 00:00
Search period end: 18 June 2023 00:00
Orbit: 425 x 435 km, 97.3° (Epoch: 07 June)

Date Brightness Start Highest point End Pass type
(mag) Time Alt. Az. Time Alt. Az. Time Alt. Az.
08 Jun ? 22:05:36 10° NE 22:05:36 10° NE 22:05:40 10° NE visible
08 Jun ? 23:38:50 10° NW 23:38:50 10° NW 23:38:54 10° NW visible
09 Jun ? 22:57:20 19° N 22:57:20 19° N 22:58:22 10° N visible
10 Jun ? 22:15:45 13° NE 22:15:45 13° NE 22:16:22 10° NNE visible
11 Jun ? 23:07:21 18° NNW 23:07:21 18° NNW 23:08:19 10° NNW visible
12 Jun ? 22:25:40 15° NNE 22:25:40 15° NNE 22:26:34 10° NNE visible
13 Jun ? 23:17:09 16° NNW 23:17:09 16° NNW 23:17:57 10° NNW visible
14 Jun ? 22:35:20 18° NNE 22:35:20 18° NNE 22:36:25 10° N visible
15 Jun ? 23:26:42 14° NW 23:26:42 14° NW 23:27:18 10° NNW visible
16 Jun ? 22:44:46 19° N 22:44:46 19° N 22:45:55 10° N visible
17 Jun ? 23:36:00 12° NW 23:36:00 12° NW 23:36:18 10° NW visible
